KD1KE Weather Reports


time (UTC)temp
F
wind
direction
speed
knots
gust
knots
rain 1hr
in
rain 24hr
in
rain mn
in
humidity
%
barometer
mb
20260505200639 73 234 2.6 7.8 0.00 0.00 0.00 54 1003.5
20260505200311 73 226 2.6 8.7 0.00 0.00 0.00 55 1003.5
20260505200245 72 224 3.5 8.7 0.00 0.00 0.00 55 1003.5
20260505195818 72 229 2.6 9.6 0.00 0.00 0.00 55 1003.4
20260505195739 72 229 2.6 9.6 0.00 0.00 0.00 55 1003.4
20260505195345 72 223 2.6 9.6 0.00 0.00 0.00 55 1003.5
20260505195211 72 229 2.6 9.6 0.00 0.00 0.00 55 1003.4
20260505194839 73 231 3.5 9.6 0.00 0.00 0.00 55 1003.5
20260505194445 73 238 3.5 16.5 0.00 0.00 0.00 55 1003.5
20260505194110 73 231 3.5 16.5 0.00 0.00 0.00 54 1003.6
20260505193940 73 229 3.5 16.5 0.00 0.00 0.00 54 1003.5
20260505193545 73 227 3.5 13.9 0.00 0.00 0.00 55 1003.7
20260505193044 73 235 3.5 12.2 0.00 0.00 0.00 54 1003.7
20260505193011 73 235 3.5 12.2 0.00 0.00 0.00 54 1003.7
20260505192645 74 240 2.6 8.7 0.00 0.00 0.00 53 1003.9
20260505192139 74 237 2.6 7.8 0.00 0.00 0.00 55 1004.1
20260505191911 74 239 3.5 10.4 0.00 0.00 0.00 54 1004.0
20260505191745 74 238 3.5 10.4 0.00 0.00 0.00 54 1004.0
20260505191238 74 229 3.5 10.4 0.00 0.00 0.00 53 1004.0
20260505190811 74 230 2.6 11.3 0.00 0.00 0.00 53 1004.0
20260505190340 74 237 2.6 11.3 0.00 0.00 0.00 52 1004.1
20260505185710 74 233 2.6 9.6 0.00 0.00 0.00 53 1004.0
20260505185439 74 234 2.6 9.6 0.00 0.00 0.00 53 1004.2
20260505185045 74 223 2.6 9.6 0.00 0.00 0.00 53 1004.2
20260505184609 74 231 3.5 11.3 0.00 0.00 0.00 54 1004.2
20260505184539 74 229 3.5 11.3 0.00 0.00 0.00 54 1004.2
20260505184145 73 238 4.3 13.0 0.00 0.00 0.00 53 1004.1
20260505183639 74 236 3.5 13.0 0.00 0.00 0.00 53 1004.2
20260505183511 74 239 2.6 13.0 0.00 0.00 0.00 52 1004.3
20260505182740 74 239 1.7 10.4 0.00 0.00 0.00 52 1004.3
20260505182410 74 235 2.6 10.4 0.00 0.00 0.00 52 1004.4
20260505182345 74 235 2.6 10.4 0.00 0.00 0.00 52 1004.4
20260505181923 74 227 2.6 8.7 0.00 0.00 0.00 54 1004.4
20260505181840 74 227 2.6 8.7 0.00 0.00 0.00 54 1004.4
20260505181445 74 231 3.5 8.7 0.00 0.00 0.00 54 1004.4
20260505181310 73 229 3.5 8.7 0.00 0.00 0.00 54 1004.4
20260505180939 73 234 3.5 11.3 0.00 0.00 0.00 55 1004.3
20260505180545 73 233 3.5 11.3 0.00 0.00 0.00 54 1004.5
20260505180211 73 233 3.5 11.3 0.00 0.00 0.00 54 1004.4
20260505180038 72 235 3.5 11.3 0.00 0.00 0.00 55 1004.4
20260505175645 72 238 3.5 10.4 0.00 0.00 0.00 55 1004.4
20260505175141 72 249 3.5 11.3 0.00 0.00 0.00 54 1004.6
20260505175110 72 249 3.5 11.3 0.00 0.00 0.00 54 1004.6
20260505174745 72 246 3.5 11.3 0.00 0.01 0.00 55 1004.6
20260505174239 72 241 3.5 11.3 0.00 0.00 0.00 55 1004.7
20260505174011 72 236 3.5 9.6 0.00 0.00 0.00 55 1004.7
20260505173845 72 230 3.5 9.6 0.00 0.01 0.00 54 1004.8
20260505173340 72 225 2.6 8.7 0.00 0.00 0.00 56 1004.9
20260505172945 71 236 2.6 8.7 0.00 0.01 0.00 56 1005.0
20260505172910 71 237 2.6 8.7 0.00 0.00 0.00 56 1005.0
20260505172439 71 242 2.6 8.7 0.00 0.01 0.00 55 1005.1
20260505171811 71 237 2.6 9.6 0.00 0.01 0.00 56 1005.2
20260505171538 71 233 2.6 9.6 0.00 0.01 0.00 55 1005.3
20260505171145 72 233 2.6 7.8 0.00 0.03 0.00 55 1005.3
20260505170710 72 230 3.5 7.8 0.00 0.02 0.00 56 1005.2
20260505170637 72 237 2.6 7.8 0.00 0.02 0.00 55 1005.2
20260505170245 72 243 2.6 9.6 0.00 0.03 0.00 54 1005.2
20260505165739 72 239 2.6 9.6 0.00 0.02 0.00 55 1005.4
20260505165610 72 236 2.6 9.6 0.00 0.02 0.00 54 1005.3
20260505165345 72 229 1.7 7.0 0.00 0.03 0.00 55 1005.3
20260505164838 72 233 1.7 7.8 0.00 0.02 0.00 54 1005.5
20260505164510 72 221 2.6 8.7 0.00 0.02 0.00 55 1005.5
20260505163938 72 226 2.6 8.7 0.00 0.02 0.00 56 1005.5
20260505163410 71 240 1.7 8.7 0.00 0.02 0.00 54 1005.6
20260505163037 72 242 1.7 8.7 0.00 0.02 0.00 55 1005.6
20260505162644 71 236 1.7 7.8 0.00 0.03 0.00 56 1005.7
20260505162310 71 231 2.6 7.8 0.00 0.02 0.00 56 1005.8
20260505162139 71 232 2.6 8.7 0.00 0.02 0.00 58 1005.8
20260505161744 70 237 2.6 8.7 0.00 0.03 0.00 55 1005.8
20260505161240 71 230 2.6 11.3 0.00 0.02 0.00 56 1005.9
20260505161209 71 230 2.6 11.3 0.00 0.02 0.00 56 1005.9
20260505160844 71 230 2.6 11.3 0.00 0.03 0.00 56 1005.9
20260505160339 72 226 2.6 11.3 0.00 0.02 0.00 54 1006.3
20260505160110 72 225 2.6 7.0 0.00 0.02 0.00 54 1006.3
20260505153244 70 208 2.6 7.0 0.00 0.03 0.00 57 1006.3
20260505152809 69 209 2.6 7.0 0.00 0.02 0.00 58 1006.4
20260505152742 69 209 2.6 7.0 0.00 0.02 0.00 56 1006.4
20260505152344 70 209 1.7 7.8 0.00 0.03 0.00 56 1006.4
20260505151839 70 240 2.6 8.7 0.00 0.02 0.00 56 1006.4
20260505151710 70 240 2.6 8.7 0.00 0.02 0.00 56 1006.4
20260505151444 70 239 1.7 8.7 0.00 0.03 0.00 56 1006.4
20260505150938 69 225 1.7 8.7 0.00 0.02 0.00 56 1006.4
20260505150608 69 222 1.7 7.0 0.00 0.02 0.00 56 1006.4
20260505150544 69 222 1.7 7.0 0.00 0.03 0.00 56 1006.4
20260505140637 67 224 0.9 5.2 0.00 0.02 0.00 57 1006.4
20260505140244 66 230 0.9 6.1 0.00 0.03 0.00 59 1006.5
20260505124538 61 250 0.9 7.8 0.00 0.02 0.00 64 1007.0
20260505124308 61 226 0.9 7.8 0.00 0.02 0.00 64 1006.9
20260505124143 61 204 0.9 7.8 0.00 0.03 0.00 64 1007.0
20260505123723 60 238 0.9 11.3 0.00 0.02 0.00 65 1007.0
20260505123637 60 238 0.9 11.3 0.00 0.02 0.00 65 1007.0
20260505123209 60 250 0.9 11.3 0.00 0.02 0.00 65 1007.1
20260505122739 60 0 0.0 0.0 0.00 0.02 0.00 65 1007.0
20260505122343 60 0 0.0 0.0 0.00 0.03 0.00 66 1007.1
20260505122108 60 0 0.0 0.0 0.00 0.02 0.00 67 1007.1
20260505121838 59 0 0.0 0.0 0.00 0.02 0.00 67 1007.1
20260505121443 59 0 0.0 0.0 0.00 0.03 0.00 67 1007.2
20260505121008 59 0 0.0 0.0 0.00 0.02 0.00 68 1007.3
20260505120936 59 0 0.0 0.0 0.00 0.02 0.00 68 1007.3
20260505120035 58 274 0.0 0.9 0.00 0.02 0.00 69 1007.2
20260505115908 58 245 0.0 6.1 0.00 0.02 0.00 70 1007.2
20260505115643 57 248 0.9 8.7 0.00 0.03 0.00 70 1007.2
20260505115136 57 248 0.9 8.7 0.00 0.02 0.00 70 1007.2
20260505114809 57 248 0.0 6.1 0.00 0.02 0.00 71 1007.2
20260505114743 57 248 0.0 6.1 0.00 0.03 0.00 71 1007.2
20260505114237 56 248 0.0 6.1 0.00 0.02 0.00 72 1007.2
20260505113845 56 0 0.0 0.0 0.00 0.03 0.00 73 1007.3
20260505113708 56 0 0.0 0.0 0.00 0.02 0.00 73 1007.3
20260505113335 55 0 0.0 0.0 0.00 0.02 0.00 74 1007.3
20260505112943 55 0 0.0 0.0 0.00 0.03 0.00 75 1007.4
20260505112608 54 0 0.0 0.0 0.00 0.02 0.00 75 1007.4
20260505112437 54 0 0.0 0.0 0.00 0.02 0.00 75 1007.4
20260505112043 54 0 0.0 0.0 0.00 0.03 0.00 75 1007.3
20260505111539 54 89 0.0 0.9 0.00 0.02 0.00 76 1007.4
20260505111508 54 89 0.0 0.9 0.00 0.02 0.00 76 1007.4
20260505111143 53 89 0.0 0.9 0.00 0.03 0.00 76 1007.4
20260505110636 53 0 0.0 0.0 0.00 0.02 0.00 77 1007.3
20260505110409 53 0 0.0 0.0 0.00 0.02 0.00 77 1007.3
20260505102009 50 0 0.0 0.0 0.00 0.02 0.00 79 1007.3
20260505101238 50 0 0.0 0.0 0.00 0.02 0.00 81 1007.3
20260505100908 50 0 0.0 0.0 0.00 0.02 0.00 80 1007.3
20260505100842 50 0 0.0 0.0 0.00 0.03 0.00 80 1007.3
20260505100336 50 0 0.0 0.0 0.00 0.02 0.00 81 1007.3
20260505095942 50 0 0.0 0.0 0.00 0.03 0.00 81 1007.1
20260505095808 50 0 0.0 0.0 0.00 0.02 0.00 81 1007.3
20260505095437 50 0 0.0 0.0 0.00 0.02 0.00 81 1007.2
20260505095042 49 0 0.0 0.0 0.00 0.03 0.00 81 1007.2
20260505094707 49 0 0.0 0.0 0.00 0.02 0.00 81 1007.2
20260505094142 49 0 0.0 0.0 0.00 0.03 0.00 81 1007.1
20260505093640 49 0 0.0 0.0 0.00 0.02 0.00 81 1007.2
20260505093608 49 0 0.0 0.0 0.00 0.02 0.00 81 1007.2
20260505093242 49 0 0.0 0.0 0.00 0.03 0.00 81 1007.2
20260505092739 49 0 0.0 0.0 0.00 0.02 0.00 82 1007.1
20260505092508 49 0 0.0 0.0 0.00 0.02 0.00 82 1007.1
20260505092342 49 0 0.0 0.0 0.00 0.03 0.00 82 1007.1
20260505091836 48 0 0.0 0.0 0.00 0.02 0.00 82 1007.2
20260505091442 48 0 0.0 0.0 0.00 0.03 0.00 82 1007.2
20260505091408 48 0 0.0 0.0 0.00 0.02 0.00 82 1007.1
20260505090935 48 201 0.0 0.9 0.00 0.02 0.00 83 1007.2
20260505090542 48 201 0.0 0.9 0.00 0.03 0.00 83 1007.2
20260505090307 48 201 0.0 0.9 0.00 0.02 0.00 83 1007.2
20260505090036 48 0 0.0 0.0 0.00 0.02 0.00 83 1007.2
20260505085208 48 0 0.0 0.0 0.00 0.02 0.00 83 1007.2
20260505084742 47 0 0.0 0.0 0.00 0.03 0.00 84 1007.2
20260505084237 47 0 0.0 0.0 0.00 0.02 0.00 84 1007.2
20260505084107 47 0 0.0 0.0 0.00 0.02 0.00 84 1007.2
20260505083336 47 0 0.0 0.0 0.00 0.02 0.00 84 1007.2
20260505083007 47 0 0.0 0.0 0.00 0.02 0.00 84 1007.2
20260505082942 47 0 0.0 0.0 0.00 0.03 0.00 84 1007.2
20260505082437 47 0 0.0 0.0 0.00 0.02 0.00 84 1007.2
20260505082042 47 0 0.0 0.0 0.00 0.03 0.00 84 1007.2
20260505081907 47 0 0.0 0.0 0.00 0.02 0.00 83 1007.2
20260505081535 48 0 0.0 0.0 0.00 0.02 0.00 83 1007.2
20260505081142 48 0 0.0 0.0 0.00 0.03 0.00 83 1007.2
20260505080807 48 0 0.0 0.0 0.00 0.02 0.00 83 1007.3
20260505080635 48 0 0.0 0.0 0.00 0.02 0.00 83 1007.3
20260505075738 48 0 0.0 0.0 0.00 0.02 0.00 83 1007.3
20260505075707 48 0 0.0 0.0 0.00 0.02 0.00 83 1007.3
20260505075342 48 0 0.0 0.0 0.00 0.03 0.00 83 1007.3
20260505074835 48 0 0.0 0.0 0.00 0.02 0.00 83 1007.4
20260505074607 48 0 0.0 0.0 0.00 0.02 0.00 83 1007.4
20260505074442 48 0 0.0 0.0 0.00 0.03 0.00 83 1007.4
20260505073935 47 0 0.0 0.0 0.00 0.02 0.00 84 1007.3
20260505073542 47 0 0.0 0.0 0.00 0.03 0.00 84 1007.3
20260505073507 47 0 0.0 0.0 0.00 0.02 0.00 84 1007.3
20260505073037 47 0 0.0 0.0 0.00 0.02 0.00 84 1007.3
20260505072642 47 0 0.0 0.0 0.00 0.03 0.00 84 1007.3
20260505072407 47 0 0.0 0.0 0.00 0.02 0.00 84 1007.4
20260505071306 47 0 0.0 0.0 0.00 0.02 0.00 84 1007.3
20260505071236 47 0 0.0 0.0 0.00 0.02 0.00 84 1007.3
20260505070335 46 0 0.0 0.0 0.00 0.02 0.00 85 1007.2
20260505070207 46 0 0.0 0.0 0.00 0.02 0.00 85 1007.2
20260505065942 46 0 0.0 0.0 0.00 0.03 0.00 85 1007.1
20260505065436 46 0 0.0 0.0 0.00 0.02 0.00 85 1007.1
20260505065106 46 0 0.0 0.0 0.00 0.02 0.00 85 1007.2
20260505064535 46 0 0.0 0.0 0.00 0.02 0.00 85 1007.1
20260505064142 46 0 0.0 0.0 0.00 0.03 0.00 85 1007.2
20260505064006 46 0 0.0 0.0 0.00 0.02 0.00 85 1007.1
20260505063636 46 0 0.0 0.0 0.00 0.02 0.00 85 1007.1
20260505062907 46 225 0.0 0.9 0.00 0.02 0.00 84 1007.2
20260505062735 47 225 0.0 0.9 0.00 0.02 0.00 84 1007.2
20260505062341 47 225 0.0 0.9 0.00 0.03 0.00 84 1007.1
20260505061842 47 166 0.0 2.6 0.00 0.02 0.00 84 1007.1
20260505061807 47 166 0.0 2.6 0.00 0.02 0.00 84 1007.1
20260505061441 47 166 0.0 2.6 0.00 0.03 0.00 84 1007.1
20260505060935 47 0 0.0 0.0 0.00 0.02 0.00 84 1007.1
20260505060707 47 0 0.0 0.0 0.00 0.02 0.00 84 1007.1
20260505060036 47 0 0.0 0.0 0.00 0.02 0.00 84 1007.1
20260505055641 47 0 0.0 0.0 0.00 0.03 0.00 84 1007.1
20260505055607 47 0 0.0 0.0 0.00 0.02 0.00 84 1007.2
20260505055135 47 0 0.0 0.0 0.00 0.02 0.00 83 1007.2
20260505054741 47 0 0.0 0.0 0.00 0.03 0.00 83 1007.2
20260505054506 47 0 0.0 0.0 0.00 0.02 0.00 83 1007.2
20260505054236 48 0 0.0 0.0 0.00 0.02 0.00 83 1007.1
20260505053406 48 0 0.0 0.0 0.00 0.02 0.00 82 1007.1
20260505053336 48 0 0.0 0.0 0.00 0.02 0.00 83 1007.1
20260505052941 48 0 0.0 0.0 0.00 0.03 0.00 83 1007.1
20260505052435 48 0 0.0 0.0 0.00 0.02 0.00 82 1007.0
20260505052307 48 0 0.0 0.0 0.00 0.02 0.00 82 1007.1
20260505052041 48 0 0.0 0.0 0.00 0.03 0.00 82 1007.0
20260505051537 48 211 0.0 1.7 0.00 0.02 0.00 81 1007.0
20260505051207 49 211 0.0 1.7 0.00 0.02 0.00 81 1007.0
20260505051141 49 211 0.0 1.7 0.00 0.03 0.00 81 1007.0
20260505050635 49 229 0.9 5.2 0.00 0.02 0.00 81 1006.9
20260505050241 49 232 0.9 5.2 0.00 0.03 0.00 80 1007.0
20260505050106 49 235 0.9 5.2 0.00 0.02 0.00 80 1006.9
20260505041705 50 0 0.0 0.0 0.00 0.02 0.00 80 1006.7
20260505041235 50 0 0.0 0.0 0.00 0.02 0.00 79 1006.6
20260505040841 50 0 0.0 0.0 0.00 0.03 0.00 79 1006.7
20260505040606 50 0 0.0 0.0 0.00 0.02 0.00 79 1006.7
20260505040335 50 0 0.0 0.0 0.00 0.02 0.00 79 1006.6
20260505035941 50 0 0.0 0.0 0.00 0.03 0.03 79 1006.6
20260505035507 50 0 0.0 0.0 0.00 0.02 0.03 79 1006.6
20260505035434 50 0 0.0 0.0 0.00 0.02 0.03 79 1006.6
20260505035041 50 0 0.0 0.0 0.00 0.03 0.03 79 1006.6
20260505034536 50 0 0.0 0.0 0.00 0.02 0.03 79 1006.5
20260505034406 50 0 0.0 0.0 0.00 0.02 0.03 79 1006.5
20260505034141 49 0 0.0 0.0 0.00 0.03 0.03 79 1006.5
20260505033635 49 0 0.0 0.0 0.00 0.02 0.03 79 1006.5
20260505033305 49 0 0.0 0.0 0.00 0.02 0.03 79 1006.5
20260505033240 49 0 0.0 0.0 0.00 0.03 0.03 79 1006.5
20260505032734 50 0 0.0 0.0 0.00 0.02 0.03 78 1006.5
20260505032340 50 0 0.0 0.0 0.00 0.03 0.03 78 1006.5
20260505032206 50 0 0.0 0.0 0.00 0.02 0.03 78 1006.5
20260505031835 50 0 0.0 0.0 0.00 0.02 0.03 78 1006.5
20260505031440 50 0 0.0 0.0 0.00 0.03 0.03 78 1006.5
20260505031105 50 171 0.0 0.9 0.00 0.02 0.03 78 1006.5
20260505030935 50 171 0.0 0.9 0.00 0.02 0.03 78 1006.6
20260505030540 50 171 0.0 0.9 0.00 0.03 0.03 78 1006.6
20260505030036 50 0 0.0 0.0 0.00 0.02 0.03 78 1006.6
20260505030005 50 0 0.0 0.0 0.00 0.02 0.03 78 1006.6
20260505025640 50 0 0.0 0.0 0.00 0.03 0.03 79 1006.6
20260505025137 49 0 0.0 0.0 0.00 0.02 0.03 80 1006.5
20260505024905 49 0 0.0 0.0 0.00 0.02 0.03 80 1006.5
20260505024740 49 0 0.0 0.0 0.00 0.03 0.03 81 1006.5
20260505024233 49 0 0.0 0.0 0.00 0.02 0.03 81 1006.5
20260505023840 49 0 0.0 0.0 0.00 0.03 0.03 82 1006.5
20260505023805 49 0 0.0 0.0 0.00 0.02 0.03 81 1006.6
20260505023333 49 0 0.0 0.0 0.00 0.02 0.03 81 1006.5
20260505022940 50 0 0.0 0.0 0.00 0.03 0.03 81 1006.5
20260505022705 50 0 0.0 0.0 0.00 0.02 0.03 81 1006.5
20260505022435 50 0 0.0 0.0 0.00 0.02 0.03 81 1006.5
20260505022040 50 0 0.0 0.0 0.00 0.03 0.03 81 1006.5
20260505021606 50 0 0.0 0.0 0.00 0.02 0.03 80 1006.6
20260505021534 50 0 0.0 0.0 0.00 0.02 0.03 80 1006.6
20260505021140 50 0 0.0 0.0 0.00 0.03 0.03 81 1006.6
20260505020634 50 0 0.0 0.0 0.00 0.02 0.03 81 1006.5
20260505020506 50 0 0.0 0.0 0.00 0.02 0.03 81 1006.6
20260505020240 50 0 0.0 0.0 0.00 0.03 0.03 81 1006.5
20260505015734 50 0 0.0 0.0 0.00 0.02 0.03 82 1006.6
20260505015404 50 0 0.0 0.0 0.00 0.02 0.03 82 1006.6
20260505015340 50 0 0.0 0.0 0.00 0.03 0.03 82 1006.6
20260505014834 49 0 0.0 0.0 0.00 0.02 0.03 82 1006.4
20260505014440 49 0 0.0 0.0 0.00 0.03 0.03 82 1006.5
20260505014307 49 0 0.0 0.0 0.00 0.02 0.03 82 1006.4
20260505013934 49 0 0.0 0.0 0.00 0.02 0.03 81 1006.4
20260505013206 49 0 0.0 0.0 0.00 0.02 0.03 80 1006.3
20260505013035 49 0 0.0 0.0 0.00 0.02 0.03 80 1006.3
20260505012640 49 0 0.0 0.0 0.00 0.03 0.03 80 1006.3
20260505012137 50 0 0.0 0.0 0.00 0.02 0.03 79 1006.5
20260505012105 50 0 0.0 0.0 0.00 0.02 0.03 79 1006.5
20260505011740 50 0 0.0 0.0 0.00 0.03 0.03 79 1006.4
20260505011234 50 0 0.0 0.0 0.00 0.02 0.03 79 1006.3
20260505011005 50 0 0.0 0.0 0.00 0.02 0.03 79 1006.3
20260505010840 50 0 0.0 0.0 0.00 0.03 0.03 79 1006.3
20260505010333 50 0 0.0 0.0 0.00 0.02 0.03 79 1006.2
20260505005940 50 0 0.0 0.0 0.00 0.03 0.03 78 1006.2
20260505005904 50 0 0.0 0.0 0.00 0.02 0.03 78 1006.2
20260505005434 50 0 0.0 0.0 0.00 0.02 0.03 78 1006.1
20260505005040 51 0 0.0 0.0 0.00 0.03 0.03 77 1006.1
20260505004804 51 0 0.0 0.0 0.00 0.02 0.03 77 1006.1
20260505004533 51 0 0.0 0.0 0.00 0.02 0.03 77 1006.1
20260505004140 51 0 0.0 0.0 0.00 0.03 0.03 77 1006.0
20260505003704 51 0 0.0 0.0 0.00 0.02 0.03 77 1005.8
20260505003634 52 0 0.0 0.0 0.00 0.02 0.03 77 1005.8
20260505002734 52 0 0.0 0.0 0.00 0.02 0.03 75 1005.7
20260505002604 52 0 0.0 0.0 0.00 0.02 0.03 75 1005.7
20260505002339 52 0 0.0 0.0 0.00 0.03 0.03 74 1005.5
20260505001834 53 0 0.0 0.0 0.00 0.02 0.03 74 1005.5
20260505001504 53 0 0.0 0.0 0.00 0.02 0.03 73 1005.4
20260505000933 53 0 0.0 0.0 0.00 0.02 0.03 72 1005.3
20260505000539 53 0 0.0 0.0 0.00 0.03 0.03 72 1005.3
20260505000405 54 0 0.0 0.0 0.00 0.02 0.03 72 1005.3
20260505000032 54 0 0.0 0.0 0.00 0.02 0.03 72 1005.3
20260504235639 54 0 0.0 0.0 0.00 0.03 0.03 71 1005.3
20260504235305 55 0 0.0 0.0 0.00 0.02 0.03 70 1005.2
20260504235133 55 0 0.0 0.0 0.00 0.02 0.03 70 1005.2
20260504234739 55 0 0.0 0.0 0.00 0.03 0.03 70 1005.2
20260504234235 56 0 0.0 0.0 0.00 0.02 0.03 69 1005.1
20260504234204 56 0 0.0 0.0 0.00 0.02 0.03 69 1005.1
20260504233839 56 0 0.0 0.0 0.00 0.03 0.03 69 1005.0
20260504233332 56 0 0.0 0.0 0.00 0.02 0.03 67 1004.9
20260504233105 57 0 0.0 0.0 0.00 0.02 0.03 67 1004.9
20260504232434 58 171 0.0 1.7 0.00 0.02 0.03 65 1004.8
20260504232004 58 171 0.0 1.7 0.00 0.02 0.03 64 1004.8
20260504231533 59 172 0.0 1.7 0.00 0.02 0.03 63 1004.8
20260504231139 60 168 0.0 1.7 0.00 0.03 0.03 62 1004.8
20260504230905 60 166 0.0 1.7 0.00 0.02 0.03 60 1004.8
20260504230633 60 166 0.0 3.5 0.00 0.02 0.03 60 1004.8
20260504230239 60 175 0.9 4.3 0.00 0.03 0.03 61 1004.8
20260504225804 60 174 0.9 4.3 0.00 0.02 0.03 59 1004.7
20260504225733 60 173 0.9 4.3 0.00 0.02 0.03 59 1004.7
20260504224834 61 170 0.9 5.2 0.00 0.02 0.03 58 1004.6
20260504224704 61 178 0.9 5.2 0.00 0.02 0.03 58 1004.7
20260504223933 61 219 0.0 3.5 0.00 0.02 0.03 58 1004.6
20260504223605 61 230 0.0 1.7 0.00 0.02 0.03 60 1004.6
20260504223539 61 228 0.0 1.7 0.00 0.03 0.03 60 1004.6
20260504223032 61 171 0.9 4.3 0.00 0.02 0.03 60 1004.6
20260504222639 61 178 0.9 4.3 0.00 0.03 0.03 58 1004.6
20260504222504 61 191 0.9 4.3 0.00 0.02 0.03 59 1004.5
20260504222133 61 118 0.9 4.3 0.00 0.02 0.03 60 1004.5
20260504221405 61 127 0.9 4.3 0.00 0.02 0.03 60 1004.6
20260504221233 61 133 0.9 3.5 0.00 0.02 0.03 58 1004.6
20260504220839 61 186 0.9 5.2 0.00 0.03 0.03 59 1004.5
20260504220336 61 182 1.7 5.2 0.00 0.02 0.03 59 1004.6
20260504220305 61 182 1.7 5.2 0.00 0.02 0.03 59 1004.6
20260504215939 61 184 1.7 4.3 0.00 0.03 0.03 58 1004.5
20260504215432 61 184 1.7 6.1 0.00 0.02 0.03 59 1004.6
20260504215204 61 190 1.7 6.1 0.00 0.02 0.03 59 1004.6
20260504215039 61 185 1.7 7.8 0.00 0.03 0.03 58 1004.6
20260504214533 61 188 2.6 7.8 0.00 0.02 0.03 59 1004.6
20260504214139 61 187 2.6 7.8 0.00 0.03 0.03 58 1004.7
20260504214104 61 189 2.6 7.8 0.00 0.02 0.03 58 1004.7
20260504213633 61 201 1.7 7.8 0.00 0.02 0.03 58 1004.6
20260504213005 61 207 1.7 6.1 0.00 0.02 0.03 58 1004.5
20260504212734 61 197 1.7 7.8 0.00 0.02 0.03 58 1004.5
20260504212339 61 188 1.7 7.8 0.00 0.03 0.03 60 1004.6
20260504211904 62 178 0.9 7.8 0.00 0.02 0.03 58 1004.5
20260504211833 62 179 0.9 4.3 0.00 0.02 0.03 58 1004.5
20260504211439 62 192 1.7 6.1 0.00 0.03 0.03 57 1004.4
20260504210931 62 198 1.7 6.1 0.00 0.02 0.03 57 1004.4
20260504210804 62 200 1.7 6.1 0.00 0.02 0.03 57 1004.4
20260504210538 62 200 1.7 6.1 0.00 0.03 0.03 59 1004.3
20260504210115 62 196 1.7 7.8 0.00 0.02 0.03 59 1004.4
20260504210032 62 196 1.7 7.8 0.00 0.02 0.03 59 1004.4
20260504205705 62 198 1.7 7.8 0.00 0.02 0.03 58 1004.2
20260504205638 62 199 1.7 7.8 0.00 0.03 0.03 58 1004.2
20260504205134 63 141 0.0 7.8 0.00 0.02 0.03 58 1004.3
20260504204603 62 172 1.7 7.0 0.00 0.02 0.03 59 1004.2
20260504204232 62 172 1.7 7.0 0.00 0.02 0.03 60 1004.2
20260504203838 62 166 0.9 7.0 0.00 0.03 0.03 62 1004.3
20260504203503 62 190 0.0 4.3 0.00 0.02 0.03 62 1004.3
20260504203332 62 190 0.0 4.3 0.00 0.02 0.03 62 1004.4
20260504202938 62 205 0.0 1.7 0.00 0.03 0.03 62 1004.4
20260504202434 62 159 0.0 0.9 0.00 0.02 0.03 62 1004.3
20260504202403 62 159 0.0 0.9 0.00 0.02 0.03 62 1004.3
20260504202038 62 159 0.0 0.9 0.00 0.03 0.03 62 1004.3
20260504201304 62 199 1.7 8.7 0.00 0.02 0.03 60 1004.4
20260504201138 62 199 1.7 8.7 0.00 0.03 0.03 60 1004.3